Back to catalog

ATLAS 5 CENTAUR DEB

AliveHEO
NORAD 47245·DEBRIS·🇺🇸 United States

Launched Oct 17, 2018 from Cape Canaveral Space Force Station

Loading…

Next Passes (next 24 hours)

TLE

FreshSource: Space-Track

Epoch: Sep 7, 2026, 03:59 UTC

1 47245U 18079EF  26250.16617596 -.00000151  00000-0  00000-0 0  9991
2 47245  13.4068  13.7730 4929724  17.6521 354.5939  1.87228658 39474

Track ATLAS 5 CENTAUR DEB in real time with AllMySat

Download on the App Store